User: anonymous   Login
Location: Nantong Television Tower
(32.0188°N, 120.8512°E)
Time: 18:52:07
(UTC+08:00)
Language:

ATLAS 3B CENTAUR R/B - Orbit

View from above orbital plane
View from above orbital plane
View from above satellite
View from above satellite

Ground track
Ground track

The orbit data is extracted from the following two-line orbital elements,

1 28118U 03057B   16180.71122172  .00062132  00000-0  95571-3 0  9998
2 28118  28.1475 310.1220 3276389 227.0573 100.4297  8.92624600257310
Epoch (UTC): 28 June 2016 17:04:09
Eccentricity: 0.3276389
inclination: 28.1475°
perigee height: 222 km
apogee height: 6654 km
right ascension of ascending node: 310.1220°
argument of perigee: 227.0573°
revolutions per day: 8.92624600
mean anomaly at epoch: 100.4297°
orbit number at epoch: 25731

The dashed part of the orbit path shows where the satellite is in the earth's shadow,  

DLR